Weather reports worldwide

Advertisment
Punta Marina, Italy (16146): temperature & dewpoint: 24.10.2020 14:00:00 - 30.10.2020 14:00:00 (CET)Punta Marina, Italy (16146): wind speed: 24.10.2020 14:00:00 - 30.10.2020 14:00:00 (CET)Punta Marina, Italy (16146): wind direction: 24.10.2020 14:00:00 - 30.10.2020 14:00:00 (CET)Punta Marina, Italy (16146): reduced air pressure: 24.10.2020 14:00:00 - 30.10.2020 14:00:00 (CET)Punta Marina, Italy (16146): visibility: 24.10.2020 14:00:00 - 30.10.2020 14:00:00 (CET)Punta Marina, Italy (16146): sunshine duration: 24.10.2020 14:00:00 - 30.10.2020 14:00:00 (CET)
Date & Time tt [°C] td [°C] ff [km/h] ff [kn] dd ppp [hPa] vv [km] sd [min]
30.10.2020 14:00:00 17,0 12,0 5 3 - - - -
30.10.2020 13:00:00 16,3 11,7 4 2 N 1024,5 - 47
30.10.2020 12:00:00 15,0 12,0 5 3 - - 10 -
30.10.2020 11:00:00 12,0 9,0 4 2 - - 10 -
30.10.2020 10:00:00 9,9 8,6 4 2 N 1024,0 10 59
30.10.2020 09:00:00 9,0 8,0 4 2 - - 10 -
30.10.2020 08:00:00 9,0 8,0 4 2 - - 10 -
30.10.2020 07:00:00 9,7 8,5 4 2 N 1023,0 - 0
30.10.2020 06:00:00 10,0 9,0 5 3 - - - -
30.10.2020 05:00:00 10,0 9,0 5 3 - - - -
30.10.2020 04:00:00 10,3 9,0 4 2 N 1022,4 - 0
30.10.2020 03:00:00 11,0 9,0 5 3 - - - -
30.10.2020 02:00:00 11,0 9,0 5 3 - - - -
30.10.2020 01:00:00 11,0 9,5 4 2 WSW 1022,5 - 0
30.10.2020 00:00:00 11,0 10,0 5 3 WSW - - -
29.10.2020 23:00:00 12,0 10,0 5 3 - - - -
29.10.2020 22:00:00 12,7 10,7 5 3 WSW 1021,2 - 0
29.10.2020 21:00:00 13,0 11,0 2 1 W - - -
29.10.2020 20:00:00 13,0 11,0 4 2 WSW - - -
29.10.2020 19:00:00 14,8 11,8 4 2 SW 1019,3 - 0
29.10.2020 18:00:00 16,0 12,0 2 1 - - - -
29.10.2020 17:00:00 19,0 13,0 4 2 SSW - - -
29.10.2020 16:00:00 18,3 10,8 180 97 WNW 1018,6 10 36
29.10.2020 15:00:00 17,0 11,0 9 5 ESE - 10 -
29.10.2020 14:00:00 17,0 11,0 4 2 - - 10 -
29.10.2020 13:00:00 14,2 9,5 4 2 N 1019,6 10 35
29.10.2020 12:00:00 13,0 9,0 4 2 - - 10 -
29.10.2020 11:00:00 11,0 8,0 8 4 W - 10 -
29.10.2020 10:00:00 9,1 7,5 4 2 N 1018,5 10 22
29.10.2020 09:00:00 9,0 7,0 2 1 - - 10 -
29.10.2020 08:00:00 9,0 7,0 2 1 - - 10 -
29.10.2020 07:00:00 9,3 7,3 4 2 N 1017,9 - 0
29.10.2020 06:00:00 9,0 7,0 4 2 - - - -
29.10.2020 05:00:00 9,0 7,0 4 2 - - - -
29.10.2020 04:00:00 9,0 7,2 4 2 WSW 1018,0 - 0
29.10.2020 03:00:00 9,0 7,0 5 3 - - - -
29.10.2020 02:00:00 9,0 7,0 4 2 - - - -
29.10.2020 01:00:00 9,5 8,1 4 2 N 1018,0 - 0
29.10.2020 00:00:00 10,0 8,0 4 2 - - - -
28.10.2020 23:00:00 10,0 9,0 4 2 - - - -
28.10.2020 22:00:00 10,7 8,6 4 2 WSW 1018,5 - 0
28.10.2020 21:00:00 12,0 9,0 4 2 - - - -
28.10.2020 20:00:00 12,0 9,0 2 1 SW - - -
28.10.2020 19:00:00 14,3 9,5 4 2 SSW 1017,8 - 0
28.10.2020 18:00:00 16,0 9,0 2 1 SSW - - -
28.10.2020 17:00:00 15,0 9,0 4 2 - - - -
28.10.2020 16:00:00 14,9 8,5 4 2 N 1017,6 15 42
28.10.2020 15:00:00 16,0 9,0 9 5 WNW - 10 -
28.10.2020 14:00:00 16,0 9,0 8 4 WNW - 10 -
28.10.2020 13:00:00 15,0 9,0 8 4 WNW 1018,3 15 5
28.10.2020 12:00:00 13,0 8,0 9 5 WNW - 10 -
28.10.2020 11:00:00 12,0 8,0 9 5 WNW - 10 -
28.10.2020 10:00:00 7,8 6,0 9 5 W 1017,3 15 60
28.10.2020 09:00:00 7,0 6,0 4 2 W - 10 -
28.10.2020 08:00:00 7,0 6,0 5 3 - - 10 -
28.10.2020 07:00:00 7,6 6,3 4 2 N 1016,8 - 0
28.10.2020 06:00:00 8,0 7,0 4 2 - - - -
28.10.2020 05:00:00 9,0 7,0 4 2 - - - -
28.10.2020 04:00:00 9,1 7,7 4 2 N 1016,4 - 0
28.10.2020 03:00:00 10,0 8,0 5 3 - - - -
28.10.2020 02:00:00 10,0 8,0 4 2 - - - -
28.10.2020 01:00:00 10,7 8,6 4 2 N 1015,5 - 0
28.10.2020 00:00:00 11,0 8,0 5 3 - - - -
27.10.2020 23:00:00 11,0 9,0 4 2 - - - -
27.10.2020 22:00:00 11,4 9,1 4 2 N 1014,3 - 0
27.10.2020 21:00:00 12,0 9,0 4 2 - - - -
27.10.2020 20:00:00 13,0 10,0 2 1 SW - - -
27.10.2020 19:00:00 14,9 9,2 4 2 SSW 1012,1 - 0
27.10.2020 18:00:00 16,0 9,0 2 1 - - - -
27.10.2020 17:00:00 16,0 9,0 4 2 - - - -
27.10.2020 16:00:00 16,9 8,7 4 2 N 1010,6 12 43
27.10.2020 15:00:00 16,0 10,0 5 3 - - 10 -
27.10.2020 14:00:00 16,0 9,0 8 4 NNW - 10 -
27.10.2020 13:00:00 14,5 9,7 4 2 N 1009,5 12 27
27.10.2020 12:00:00 14,0 9,0 8 4 NNW - 10 -
27.10.2020 11:00:00 13,0 9,0 5 3 - - 10 -
27.10.2020 10:00:00 13,5 8,6 9 5 W 1007,3 12 4
27.10.2020 09:00:00 13,0 10,0 4 2 - - 10 -
27.10.2020 08:00:00 14,0 10,0 5 3 - - 10 -
27.10.2020 07:00:00 14,0 11,0 5 3 - - - -
27.10.2020 06:00:00 - - - - - - - -
27.10.2020 05:00:00 - - - - - - - -
27.10.2020 04:00:00 - - - - - - - -
27.10.2020 03:00:00 - - - - - - - -
27.10.2020 02:00:00 18,0 11,0 2 1 - - - -
27.10.2020 01:00:00 18,6 11,6 4 2 N 1005,5 - 0
27.10.2020 00:00:00 19,0 13,0 5 3 - - - -
26.10.2020 23:00:00 19,0 12,0 11 6 SSE - - -
26.10.2020 22:00:00 17,9 13,9 13 7 SSE 1006,0 - 0
26.10.2020 21:00:00 18,0 14,0 13 7 SSE - - -
26.10.2020 20:00:00 19,0 10,0 8 4 SSE - - -
26.10.2020 19:00:00 19,0 11,4 9 5 SE 1006,2 - 0
26.10.2020 18:00:00 19,0 14,0 5 3 S - - -
26.10.2020 17:00:00 20,0 13,0 8 4 S - - -
26.10.2020 16:00:00 19,8 13,2 8 4 SE 1007,2 15 20
26.10.2020 15:00:00 20,0 12,0 15 8 ESE - 10 -
26.10.2020 14:00:00 21,0 12,0 16 9 ESE - 10 -
26.10.2020 13:00:00 19,1 14,2 9 5 S 1008,9 15 8
26.10.2020 12:00:00 18,0 13,0 8 4 S - 10 -
26.10.2020 11:00:00 16,0 12,0 8 4 SE - 10 -
26.10.2020 10:00:00 12,8 10,7 4 2 N 1010,1 15 37
26.10.2020 09:00:00 12,0 11,0 5 3 - - 10 -
26.10.2020 08:00:00 11,0 10,0 4 2 - - 10 -
26.10.2020 07:00:00 10,5 9,3 4 2 N 1011,1 - 0
26.10.2020 06:00:00 10,0 9,0 4 2 - - - -
26.10.2020 05:00:00 11,0 9,0 4 2 - - - -
26.10.2020 04:00:00 12,0 9,4 4 2 N 1012,2 - 0
26.10.2020 03:00:00 12,0 10,0 4 2 - - - -
26.10.2020 02:00:00 12,0 10,0 4 2 - - - -
26.10.2020 01:00:00 12,4 11,1 4 2 N 1013,8 - 0
26.10.2020 00:00:00 14,0 13,0 4 2 - - - -
25.10.2020 23:00:00 14,0 13,0 4 2 - - - -
25.10.2020 22:00:00 14,7 13,8 4 2 N 1014,3 - 0
25.10.2020 21:00:00 15,0 14,0 4 2 - - - -
25.10.2020 20:00:00 15,0 14,0 4 2 - - - -
25.10.2020 19:00:00 16,1 14,2 4 2 N 1014,1 - 0
25.10.2020 18:00:00 18,0 14,0 5 3 - - - -
25.10.2020 17:00:00 19,0 15,0 5 3 - - - -
25.10.2020 16:00:00 18,6 15,1 4 2 N 1014,4 - 32
25.10.2020 15:00:00 19,0 14,0 5 3 ENE - - -
25.10.2020 14:00:00 17,0 14,0 5 3 - - - -
25.10.2020 13:00:00 14,8 13,1 4 2 N 1016,4 - 59
25.10.2020 12:00:00 14,0 13,0 5 3 - - - -
25.10.2020 11:00:00 14,0 13,0 4 2 - - - -
25.10.2020 10:00:00 13,5 12,3 8 4 WNW 1016,4 - 1
25.10.2020 09:00:00 14,0 12,0 8 4 WNW - - -
25.10.2020 08:00:00 14,0 13,0 5 3 - - - -
25.10.2020 07:00:00 14,0 13,0 4 2 N 1015,6 - 0
25.10.2020 06:00:00 14,0 13,0 5 3 - - - -
25.10.2020 05:00:00 14,0 13,0 8 4 WNW - - -
25.10.2020 04:00:00 14,1 13,2 8 4 WNW 1015,9 - 0
25.10.2020 03:00:00 14,0 13,0 8 4 WNW - - -
25.10.2020 02:00:00 14,0 13,0 5 3 - - - -
25.10.2020 01:00:00 - - - - - - - -
25.10.2020 00:00:00 14,0 13,0 4 2 - - - -
24.10.2020 23:00:00 14,0 13,0 4 2 - - - -
24.10.2020 22:00:00 14,3 13,4 4 2 N 1015,9 - 0
24.10.2020 21:00:00 14,0 13,0 4 2 - - - -
24.10.2020 20:00:00 14,0 13,0 4 2 - - - -
24.10.2020 19:00:00 14,4 13,1 8 4 E 1015,5 - 0
24.10.2020 18:00:00 15,0 13,0 4 2 - - - -
24.10.2020 17:00:00 15,0 13,0 4 2 - - - -
24.10.2020 16:00:00 14,8 13,4 4 2 N 1016,1 - 0
24.10.2020 15:00:00 15,0 13,0 4 2 - - - -
24.10.2020 14:00:00 15,0 13,0 4 2 - - - -

tt = temperature
td = dewpoint
ff = wind speed
dd = wind direction
ppp = reduced air pressure
vv = visibility
sd = sunshine duration

Next stations